Tracking 25710 objects as of 5-Jul-2022
HD Live streaming from Space Station
objects crossing your sky now

ONEWEB-0152

Track ONEWEB-0152 now!
10-day predictions
ONEWEB-0152 is classified as:


NORAD ID: 48043
Int'l Code: 2021-025B
Perigee: 1,215.2 km
Apogee: 1,218.6 km
Inclination: 87.9 °
Period: 109.6 minutes
Semi major axis: 7587 km
RCS: Unknown
Launch date: March 25, 2021
Source: United States (US)
Launch site: VOSTOCHNY COSMODROME (VOSTO)
aabbcc
Your satellite tracking list
Your tracking list is empty




NASA's NSSDC Master Catalog

Two Line Element Set (TLE):
1 48043U 21025B   22185.69790905  .00000503  00000-0  13416-2 0  9997
2 48043  87.8992 246.9380 0002219 105.4801 254.6573 13.13470014 64061
Source of the keplerian elements: AFSPC